Regional Weather Roundup
Issued by NWS

Home | Current Version | Previous Version | Graphics & Text | Print | Product List | Glossary On
Versions: 1 2 3 4 5 6 7 8 9 10 11 12 13 14 15 16 17 18 19 20 21 22 23 24 25 26 27 28 29 30 31 32 33 34 35 36 37 38 39 40 41 42 43 44 45 46 47 48 49 50
000
ASUS43 KDTX 260410
RWRMI
MICHIGAN HOURLY REGIONAL WEATHER ROUNDUP
NATIONAL WEATHER SERVICE DETROIT/PONTIAC MI
1200 AM EDT TUE JUL 26 2016

NOTE: "FAIR" INDICATES FEW OR NO CLOUDS BELOW 12,000 FEET WITH NO
SIGNIFICANT WEATHER AND/OR OBSTRUCTION TO VISIBILITY.

MIZ047>049-052>055-059>063-066>070-074>076-081>083-260500-
SOUTHEAST LOWER MICHIGAN

CITY           SKY/WX    TMP DP  RH WIND       PRES   REMARKS
ADRIAN         CLOUDY    72  65  78 NW7       30.00S
ALMA           CLEAR     67  63  88 CALM      30.01S
ANN ARBOR      CLEAR     74  62  66 W6        29.99S
BAD AXE        CLEAR     63  61  92 CALM      30.00R
CARO           CLEAR     67  62  84 NW3       29.99R
DETROIT CITY   CLEAR     79  62  56 NW6       29.97S
DETROIT        PTCLDY    77  61  57 NW6       29.98S
FLINT          CLEAR     73  60  63 NW5       29.99S
GROSSE ILE     CLEAR     77  63  61 NW3       29.96S
HILLSDALE      CLEAR     65  63  90 CALM      30.02S
HOWELL         CLEAR     71  59  67 W5        30.00S

CITY           SKY/WX    TMP DP  RH WIND       PRES   REMARKS
JACKSON        CLEAR     68  65  90 NW5       30.02S
LAMBERTVILLE   PTCLDY    74  67  77 CALM      29.99S
LANSING        CLEAR     70  60  70 CALM      30.01S
LAPEER         FAIR      66  61  85 N5        29.99S
MASON          CLEAR     70  63  78 W8        30.01S
MONROE         PTCLDY    71  68  90 W3        29.97S
MT. CLEMENS    CLEAR     76  61  59 NW7       29.95R
PONTIAC        PTCLDY    75  61  61 NW8       29.99S
PORT HURON     CLEAR     70  64  83 CALM      29.98S
TRI CITIES     CLEAR     72  63  73 NW7       30.00S
MIDLAND        FAIR      64  63  94 NW3       30.00R
TROY           CLEAR     78  59  52 W5        30.00S
SAGINAW HB     CLEAR     70  61  73 NW8       29.99S
$$
MIZ043>046-050>051-056>058-064>065-071>073-077>080-260500-
SOUTHWEST LOWER MICHIGAN

CITY           SKY/WX    TMP DP  RH WIND       PRES   REMARKS
BATTLE CREEK   CLOUDY    66  64  93 NW5       30.03S
BENTON HARBOR  PTCLDY    68  64  87 CALM      30.02S
BIG RAPIDS     CLEAR     65  64  99 CALM      30.02S
COLDWATER      CLOUDY    66  65  95 CALM      30.02S
FREMONT        FAIR      67  67 100 CALM      30.02R
HOLLAND        CLEAR     67  65  93 CALM      30.02S
GRAND RAPIDS   CLEAR     72  63  73 W7        30.02S
IONIA          FAIR      71  59  66 W3        30.01S
KALAMAZOO      CLOUDY    70  62  76 CALM      30.03R
LUDINGTON      PTCLDY    71  68  92 SW5       30.00S
MARSHALL       CLEAR     69  63  82 CALM      30.02S
MOUNT PLEASANT CLEAR     68  62  80 CALM      30.01R
MUSKEGON       CLEAR     66  65  96 CALM      30.02R
SOUTH HAVEN    CLOUDY    64  64 100 CALM      30.02S
$$
MIZ016>042-260500-
NORTHERN LOWER MICHIGAN

CITY           SKY/WX    TMP DP  RH WIND       PRES   REMARKS
ALPENA         CLEAR     66  56  70 W3        29.98R
BEAVER ISLAND  CLEAR     59  59  97 CALM      29.99R
BELLAIRE       CLEAR     61  59  93 CALM      30.00S
CADILLAC       CLEAR     62  58  89 CALM      30.03S
CHARLEVOIX     CLEAR     64  59  85 CALM      30.02S
FRANKFORT      CLEAR     66  62  89 CALM      30.00R
GAYLORD        CLEAR     63  56  78 CALM      30.02R
GRAYLING       CLEAR     58  56  92 CALM      30.03R
HARBOR SPRINGS CLEAR     62  59  90 CALM      29.99S
HOUGHTON LAKE  CLEAR     61  59  93 CALM      30.03R
MANISTEE       PTCLDY    65  63  93 CALM      30.00R
OSCODA         CLEAR     65  55  70 W5        29.99R
ROGERS CITY    CLEAR     63  56  77 W5        29.98S
TRAVERSE CITY  CLEAR     67  62  84 CALM      29.99R
$$
MIZ007>008-015-260500-
EASTERN UPPER MICHIGAN

CITY           SKY/WX    TMP DP  RH WIND       PRES   REMARKS
KINROSS        CLEAR     63  58  83 CALM      29.96S
MACKINAC ISLAN CLEAR     67  60  77 W7        29.97R
NEWBERRY       CLEAR     61  59  94 W5        29.96S
S. S. MARIE    CLEAR     64  60  87 N5        29.95S
$$
MIZ004>006-011>014-085-260500-
CENTRAL UPPER MICHIGAN

CITY           SKY/WX    TMP DP  RH WIND       PRES   REMARKS
MANISTIQUE     CLEAR     66  63  88 SW3       29.98R
ESCANABA       CLEAR     66  61  82 S3        29.98R
MENOMINEE      CLEAR    N/A N/A N/A CALM      30.00R
SAWYER-GWINN   CLEAR     65  56  74 W3        30.00S
$$
MIZ001>003-009>011-084-260500-
WESTERN UPPER MICHIGAN

CITY           SKY/WX    TMP DP  RH WIND       PRES   REMARKS
IRON MOUNTAIN  CLEAR     62  56  80 CALM      30.00S
HOUGHTON       CLEAR     67  58  72 W8        29.96S
COPPER HARBOR    N/A     73  57  57 VRB5      29.93S
IRONWOOD       CLEAR     63  63 100 CALM      29.99R
$$

ABBREVIATIONS USED IN REMARKS
   TC - TEMPERATURE IN CELSIUS
  WCI - WIND CHILL INDEX
   HX - HEAT INDEX
  VSB - VISIBILITY





USA.gov is the U.S. government's official web portal to all federal, state and local government web resources and services.